STARLINK-4150 (53134 NORAD) Tracking and Keplerian Element Data

This shows tracking and keplerian element data for the satellite.

Feedback or suggestion? Click here.




ElementValue
Catalog53134
NameSTARLINK-4150
Epoch Orbit1171
Epoch Day270.25001157
Epoch Year2022
RAAN67.9614
Inclination53.215
Eccentricity0.0001905
Argument of Perigee43.4299
Mean Anonmoly304.9206
Mean Motion15.08817632
Decay Rate0.00032355
L11 53134U 22083C 22270.25001157 .00032355 00000+0 20429-2 0 9991
L22 53134 53.2150 67.9614 0001905 43.4299 304.9206 15.08817632 11718

Live tracking and technical data element details for STARLINK-4150 (NORAD 53134). STARLINK-4150 can be tracked NOW for your location showing map with azimuth and elevation plus other details from your city location.

Track the satellite on the map from your city or location and see movement details for azimuth, elevation, latitude, longitude, range, height, and movement on the map or in text.







IsCatalogInMostPopularTable: catalog: 53134, numindb: 6
Update: records affected: 1



GetName: 53134 STARLINK-4150

Hit Count: updated at: Wed, 28 Sep 2022 23:02:42 GMT